Location: ????????
(55.0097°N, 38.5678°E)
Time: 01:14:54
(UTC+00:00)

NOSS 3-1 (C) - Pass Details

Date: 17 December 2025
Orbit: 618 x 1583 km, 63.4° (Epoch: 10 January)

Event Time Altitude Azimuth Distance (km) Brightness Sun altitude
Rises 16:04:40 0° 191° (SSW) 2,958 6.3 -25.0°
Reaches altitude 10° 16:07:00 10° 181° (S) 2,117 5.3 -25.3°
Enters shadow 16:08:12 17° 171° (S) 1,743 4.8 -25.5°
